Regional Weather Roundup
Issued by NWS Memphis, TN

Home | Current Version | Previous Version | Text Only | Print | Product List | Glossary On
Versions: 1 2 3 4 5 6 7 8 9 10 11 12 13 14 15 16 17 18 19 20 21 22 23 24 25 26 27 28 29 30 31 32 33 34 35 36 37 38 39 40 41 42 43 44 45 46 47 48 49 50
000
ASUS44 KMEG 310310
RWRMEG
MEMPHIS CWA HOURLY WEATHER ROUNDUP
NATIONAL WEATHER SERVICE MEMPHIS TN
1000 PM CDT WED JUL 30 2014

...WEST TENNESSEE...

CITY           SKY/WX    TMP DP  RH WIND       PRES   REMARKS
MEMPHIS INTL   CLOUDY    77  61  57 N5        30.07R
NWS MEMPHIS      N/A     73 N/A N/A MISG        N/A
JACKSON        CLOUDY    70  65  84 CALM      30.07S
LEXINGTON      CLEAR     66  64  94 CALM      30.07S
SAVANNAH       CLOUDY    67  67 100 CALM      30.09R
DYERSBURG      CLOUDY    70  57  64 CALM      30.08R
UNION CITY     PTCLDY    68  64  88 CALM      30.06S
PARIS          MOCLDY    62  59  90 CALM      30.08S


...EASTERN ARKANSAS...

CITY           SKY/WX    TMP DP  RH WIND       PRES   REMARKS
JONESBORO      LGT RAIN  70  65  84 W3        30.06S
WEST MEMPHIS   LGT RAIN  73  67  81 N3        30.06R
BATESVILLE     CLOUDY    68  66  94 CALM      30.07S
NEWPORT        LGT RAIN  70  67  90 SW6       30.08S
WALNUT RIDGE   CLOUDY    70  64  83 CALM      30.06S
BLYTHEVILLE    LGT RAIN  72  67  84 NW5       30.07R
SEARCY         CLOUDY    68  66  93 CALM      30.08S
STUTTGART      CLOUDY    70  64  83 N5        30.07F
PINE BLUFF     CLOUDY    69  66  90 N3        30.07S
MONTICELLO     CLOUDY    70  67  90 W5        30.07R


...NORTH MISSISSIPPI...

CITY           SKY/WX    TMP DP  RH WIND       PRES   REMARKS
TUPELO         CLOUDY    74  64  71 CALM      30.06S
OLIVE BRANCH   CLEAR     72  68  88 CALM      30.07S
CLARKSDALE     CLOUDY    72  72 100 W3        30.07R
CORINTH        CLOUDY    72  66  83 CALM      30.07S
GRENADA        CLOUDY    70  64  83 CALM      30.05F
GREENWOOD      CLOUDY    72  68  87 CALM      30.05S
COLUMBUS       CLOUDY    72  65  80 CALM      30.06R
STARKVILLE     FAIR      68  63  83 CALM      30.06S
GOLDEN TRIANGL CLOUDY    72  61  68 N3        30.07R


...SOUTHEAST MISSOURI...

CITY           SKY/WX    TMP DP  RH WIND       PRES   REMARKS
WEST PLAINS    LGT RAIN  67  65  93 CALM      30.10R
POPLAR BLUFF   CLOUDY    70  63  78 SW3       30.05S
CAPE GIRARDEAU CLOUDY    66  63  90 CALM      30.07R


...NORTHWEST ALABAMA...

CITY           SKY/WX    TMP DP  RH WIND       PRES   REMARKS
MUSCLE SHOALS  CLOUDY    71  62  73 CALM      30.08S


...MIDDLE TENNESSEE...

CITY           SKY/WX    TMP DP  RH WIND       PRES   REMARKS
NASHVILLE      CLOUDY    69  57  65 CALM      30.09R
CLARKSVILLE    MOCLDY    67  59  75 CALM      30.08R
DICKSON        MOCLDY    64  57  77 CALM      30.09S
COLUMBIA       CLEAR     66  64  94 CALM      30.08R
LEWISBURG      MOCLDY    66  61  84 CALM      30.09R


...WESTERN KENTUCKY...

CITY           SKY/WX    TMP DP  RH WIND       PRES   REMARKS
PADUCAH        MOCLDY    67  62  84 CALM      30.07R
FORT CAMPBELL  MOCLDY    67  57  69 N2        30.08R


...CENTRAL ARKANSAS...

CITY           SKY/WX    TMP DP  RH WIND       PRES   REMARKS
LITTLE ROCK    CLOUDY    70  65  84 CALM      30.07S


SKY/WX REPORTED AS FAIR MEANS FEW OR NO CLOUDS BELOW
12 THOUSAND FEET.



USA.gov is the U.S. government's official web portal to all federal, state and local government web resources and services.